When you browse on this site, cookies collect data to enhance your experience and personalize the content and advertising you see.
Visit our Privacy Policy to learn more. By continuing to use the site, you agree to this use of cookies and data.
  • In Portugal
  • List of Countries
  • For 7 days
  • Water Temperature
  • Weather Map
  • Weather Widgets
  • user-avatar
    Login

    Hourly Weather Hrazdan

    Today, 17 February, Monday

    Time Temperature Precipitation Wind Pressure Humidity
    00:00 -9°C° 0 mm 2 mps 613 mmHg 87%
    01:00 -9°C° 0 mm 2 mps 613 mmHg 87%
    02:00 -10°C° 0 mm 2 mps 613 mmHg 87%
    03:00 -10°C° 0 mm 2 mps 613 mmHg 87%
    04:00 -10°C° 0 mm 2 mps 613 mmHg 88%
    05:00 -10°C° 0 mm 2 mps 613 mmHg 88%
    06:00 -9°C° 0 mm 2 mps 613 mmHg 89%
    07:00 -9°C° 0.1 mm 2 mps 613 mmHg 90%
    08:00 -8°C° 0.1 mm 2 mps 614 mmHg 91%
    09:00 -8°C° 0.1 mm 2 mps 614 mmHg 92%
    10:00 -7°C° 0.2 mm 2 mps 614 mmHg 92%
    11:00 -6°C° 0.2 mm 2 mps 614 mmHg 91%
    12:00 -6°C° 0.2 mm 2 mps 614 mmHg 91%
    13:00 -5°C° 0.1 mm 2 mps 614 mmHg 90%
    14:00 -5°C° 0.1 mm 2 mps 614 mmHg 89%
    15:00 -5°C° 0.1 mm 2 mps 614 mmHg 89%
    16:00 -6°C° 0 mm 2 mps 614 mmHg 90%
    17:00 -7°C° 0 mm 2 mps 614 mmHg 91%
    18:00 -7°C° 0 mm 1 mps 614 mmHg 93%
    19:00 -7°C° 0 mm 1 mps 614 mmHg 92%
    20:00 -8°C° 0 mm 1 mps 615 mmHg 92%
    21:00 -8°C° 0 mm 1 mps 615 mmHg 92%
    22:00 -9°C° 0 mm 1 mps 615 mmHg 91%
    23:00 -9°C° 0 mm 1 mps 615 mmHg 90%

    Tomorrow, 18 February, Tuesday

    Time Temperature Precipitation Wind Pressure Humidity
    00:00 -10°C° 0 mm 1 mps 614 mmHg 89%
    01:00 -10°C° 0 mm 1 mps 614 mmHg 88%
    02:00 -10°C° 0 mm 1 mps 615 mmHg 88%
    03:00 -10°C° 0 mm 1 mps 615 mmHg 87%
    04:00 -10°C° 0 mm 1 mps 615 mmHg 86%
    05:00 -10°C° 0 mm 1 mps 615 mmHg 85%
    06:00 -9°C° 0 mm 1 mps 615 mmHg 84%
    07:00 -8°C° 0 mm 1 mps 615 mmHg 85%
    08:00 -6°C° 0 mm 1 mps 616 mmHg 86%
    09:00 -4°C° 0 mm 1 mps 617 mmHg 87%
    10:00 -3°C° 0 mm 1 mps 617 mmHg 87%
    11:00 -2°C° 0 mm 1 mps 617 mmHg 88%
    12:00 -3°C° 0 mm 2 mps 617 mmHg 89%
    13:00 -3°C° 0 mm 2 mps 616 mmHg 90%
    14:00 -2°C° 0 mm 2 mps 616 mmHg 90%
    15:00 0°C° 0 mm 1 mps 616 mmHg 91%
    16:00 -2°C° 0 mm 1 mps 615 mmHg 89%
    17:00 -3°C° 0 mm 1 mps 614 mmHg 88%
    18:00 -6°C° 0 mm 1 mps 614 mmHg 86%
    19:00 -6°C° 0 mm 1 mps 614 mmHg 84%
    20:00 -6°C° 0 mm 1 mps 614 mmHg 81%
    21:00 -7°C° 0 mm 2 mps 614 mmHg 79%
    22:00 -8°C° 0 mm 2 mps 614 mmHg 80%
    23:00 -8°C° 0 mm 2 mps 614 mmHg 80%

    Day after tomorrow, 19 February, Wednesday

    Time Temperature Precipitation Wind Pressure Humidity
    00:00 -8°C° 0 mm 2 mps 613 mmHg 81%
    01:00 -8°C° 0 mm 2 mps 613 mmHg 83%
    02:00 -8°C° 0 mm 2 mps 613 mmHg 84%
    03:00 -8°C° 0 mm 2 mps 612 mmHg 86%
    04:00 -8°C° 0 mm 2 mps 612 mmHg 86%
    05:00 -8°C° 0 mm 2 mps 612 mmHg 87%
    06:00 -8°C° 0 mm 2 mps 612 mmHg 88%
    07:00 -7°C° 0 mm 2 mps 612 mmHg 88%
    08:00 -6°C° 0 mm 2 mps 612 mmHg 88%
    09:00 -5°C° 0 mm 2 mps 612 mmHg 89%
    10:00 -4°C° 0 mm 2 mps 612 mmHg 89%
    11:00 -3°C° 0 mm 2 mps 611 mmHg 90%
    12:00 -2°C° 0 mm 2 mps 611 mmHg 91%
    13:00 -2°C° 0 mm 2 mps 611 mmHg 90%
    14:00 -1°C° 0 mm 2 mps 610 mmHg 89%
    15:00 -1°C° 0 mm 2 mps 610 mmHg 89%
    16:00 0°C° 0 mm 1 mps 609 mmHg 87%
    17:00 -1°C° 0 mm 1 mps 609 mmHg 86%
    18:00 -2°C° 0 mm 1 mps 609 mmHg 85%
    19:00 -2°C° 0 mm 1 mps 609 mmHg 84%
    20:00 -2°C° 0 mm 1 mps 608 mmHg 83%
    21:00 -2°C° 0 mm 1 mps 608 mmHg 83%
    22:00 -2°C° 0 mm 1 mps 608 mmHg 83%
    23:00 -3°C° 0 mm 0 mps 608 mmHg 84%

    20 February, Thursday

    Time Temperature Precipitation Wind Pressure Humidity
    00:00 -3°C° 0 mm 0 mps 608 mmHg 84%
    01:00 -4°C° 0 mm 0 mps 607 mmHg 83%
    02:00 -4°C° 0 mm 0 mps 607 mmHg 83%
    03:00 -3°C° 0 mm 1 mps 606 mmHg 82%
    04:00 -4°C° 0 mm 1 mps 606 mmHg 82%
    05:00 -4°C° 0 mm 1 mps 606 mmHg 81%
    06:00 -4°C° 0 mm 1 mps 605 mmHg 80%
    07:00 -3°C° 0 mm 1 mps 606 mmHg 81%
    08:00 -1°C° 0 mm 1 mps 606 mmHg 81%
    09:00 -1°C° 0 mm 0 mps 607 mmHg 81%
    10:00 0°C° 0 mm 1 mps 607 mmHg 85%
    11:00 +1°C° 0 mm 1 mps 607 mmHg 89%
    12:00 +1°C° 0 mm 1 mps 606 mmHg 93%
    13:00 +2°C° 0.1 mm 1 mps 606 mmHg 93%
    14:00 +2°C° 0.1 mm 1 mps 606 mmHg 93%
    15:00 +2°C° 0.1 mm 1 mps 605 mmHg 94%
    16:00 0°C° 0 mm 0 mps 605 mmHg 95%
    17:00 -2°C° 0 mm 0 mps 605 mmHg 95%
    18:00 -3°C° 0 mm 0 mps 604 mmHg 96%
    19:00 -2°C° 0 mm 1 mps 605 mmHg 96%
    20:00 -1°C° 0 mm 1 mps 605 mmHg 95%
    21:00 -1°C° 0 mm 1 mps 606 mmHg 95%
    22:00 -2°C° 0 mm 1 mps 605 mmHg 95%
    23:00 -2°C° 0 mm 1 mps 605 mmHg 95%

    21 February, Friday

    Time Temperature Precipitation Wind Pressure Humidity
    00:00 -2°C° 0 mm 1 mps 605 mmHg 95%
    01:00 -2°C° 0 mm 1 mps 605 mmHg 95%
    02:00 -4°C° 0 mm 2 mps 605 mmHg 95%
    03:00 -4°C° 0 mm 2 mps 606 mmHg 95%
    04:00 -4°C° 0 mm 2 mps 606 mmHg 95%
    05:00 -4°C° 0 mm 2 mps 606 mmHg 94%
    06:00 -4°C° 0 mm 2 mps 606 mmHg 94%
    07:00 -4°C° 0 mm 2 mps 606 mmHg 93%
    08:00 -3°C° 0 mm 2 mps 607 mmHg 93%
    09:00 -2°C° 0 mm 2 mps 607 mmHg 93%
    16:00 -2°C° 0 mm 2 mps 607 mmHg 91%
    17:00 -2°C° 0 mm 2 mps 607 mmHg 92%
    18:00 -3°C° 0 mm 2 mps 607 mmHg 93%
    19:00 -4°C° 0 mm 2 mps 607 mmHg 92%
    20:00 -4°C° 0 mm 2 mps 608 mmHg 91%
    21:00 -4°C° 0 mm 2 mps 608 mmHg 91%
    22:00 -4°C° 0 mm 2 mps 608 mmHg 91%
    23:00 -2°C° 0 mm 1 mps 608 mmHg 91%

    22 February, Saturday

    Time Temperature Precipitation Wind Pressure Humidity
    00:00 -2°C° 0 mm 1 mps 608 mmHg 92%
    01:00 -2°C° 0 mm 1 mps 608 mmHg 91%
    02:00 -3°C° 0 mm 1 mps 608 mmHg 91%
    03:00 -3°C° 0 mm 1 mps 608 mmHg 91%
    04:00 -3°C° 0 mm 1 mps 608 mmHg 91%
    05:00 -3°C° 0 mm 1 mps 608 mmHg 91%
    06:00 -3°C° 0 mm 1 mps 609 mmHg 90%
    07:00 -2°C° 0 mm 1 mps 609 mmHg 90%
    08:00 -1°C° 0 mm 1 mps 609 mmHg 89%
    09:00 0°C° 0 mm 1 mps 610 mmHg 89%
    10:00 0°C° 0 mm 1 mps 610 mmHg 89%
    11:00 +1°C° 0 mm 1 mps 610 mmHg 90%
    12:00 +2°C° 0 mm 1 mps 610 mmHg 91%
    13:00 +2°C° 0 mm 1 mps 609 mmHg 91%
    14:00 +2°C° 0 mm 1 mps 609 mmHg 91%
    15:00 +2°C° 0 mm 1 mps 609 mmHg 90%
    16:00 +1°C° 0 mm 1 mps 609 mmHg 91%
    17:00 -1°C° 0 mm 0 mps 608 mmHg 92%
    18:00 -2°C° 0 mm 0 mps 608 mmHg 92%
    19:00 -2°C° 0 mm 0 mps 608 mmHg 91%
    20:00 -3°C° 0 mm 0 mps 608 mmHg 90%
    21:00 -3°C° 0 mm 0 mps 608 mmHg 88%
    22:00 -3°C° 0 mm 0 mps 608 mmHg 88%
    23:00 -3°C° 0 mm 0 mps 608 mmHg 87%
    Show more